Regional Weather Roundup
Issued by NWS

Home | Current Version | Previous Version | Graphics & Text | Print | Product List | Glossary On
Versions: 1 2 3 4 5 6 7 8 9 10 11 12 13 14 15 16 17 18 19 20 21 22 23 24 25 26 27 28 29 30 31 32 33 34 35 36 37 38 39 40 41 42 43 44 45 46 47 48 49 50
000
ASUS43 KOAX 221302
RWRNE

WEATHER ROUNDUP FOR NEBRASKA
NATIONAL WEATHER SERVICE OMAHA NE
700 AM CST MON JAN 22 2018

NOTES: SATELLITE DATA IS BEING USED TO AUGMENT CLOUD COVER ABOVE
       12000 FEET.
       "FAIR" INDICATES FEW OR NO CLOUDS BELOW 12,000 FEET WITH NO
       SIGNIFICANT WEATHER AND/OR OBSTRUCTIONS TO VISIBILITY.


NEZ001>004-019>022-054>056-221400-
NEBRASKA PANHANDLE

CITY           SKY/WX    TMP DP  RH WIND       PRES   REMARKS
SCOTTSBLUFF    MOCLDY    19  11  70 W15       30.00S WCI   5
ALLIANCE       CLOUDY    23  16  74 NW18      29.94R WCI   9
CHADRON        PTCLDY    16   9  74 S5        30.01S WCI   9
GORDON         FAIR      22  17  79 NW10      29.94R WCI  11
KIMBALL        PTCLDY    17   9  71 NW20      29.96R WCI   0
SIDNEY         CLOUDY    21  14  74 NW21      29.94R WCI   5
$$

NEZ057>060-069>072-079>082-221400-
SOUTHWEST NEBRASKA

CITY           SKY/WX    TMP DP  RH WIND       PRES   REMARKS
NORTH PLATTE   LGT SNOW  29  24  82 NW25G31   29.84R WCI  14
IMPERIAL       CLOUDY    27  24  89 NW28G37   29.88R WCI  11
LEXINGTON      CLOUDY    30  28  92 N17       29.73R WCI  18
MCCOOK         FOG       29  28  96 N35G47    29.79R VSB 3/4 WCI  12
OGALLALA       CLOUDY    28  23  79 N25G31    29.88F WCI  14
$$

NEZ005>010-023>029-035>040-094-221400-
NORTH CENTRAL NEBRASKA

CITY           SKY/WX    TMP DP  RH WIND       PRES   REMARKS
VALENTINE      CLOUDY    26  23  88 N20       29.90R WCI  12
AINSWORTH        N/A     27  25  93 NW23G29   29.83F WCI  12
BROKEN BOW     CLOUDY    28  26  92 N35G41    29.74R FOG     WCI  11
O`NEILL        CLOUDY    25  24  99 NW30      29.76S WCI   8
ORD            FOG       28  27  96 N32G48    29.70S VSB 1/4 WCI  12
THEDFORD         N/A     28  25  89 NW22      29.85R WCI  13
$$

NEZ041-046>049-061>064-073>077-083>087-221400-
SOUTH CENTRAL NEBRASKA

CITY           SKY/WX    TMP DP  RH WIND       PRES   REMARKS
GRAND ISLAND   LGT SNOW  30  30 100 N31G44    29.58R VSB 3/4 WCI  15
AURORA         LGT SNOW  31  31  97 N30G41    29.56R WCI  17
HASTINGS       LGT SNOW  30  28  92 N29G44    29.58R FOG     WCI  15
HEBRON         LGT SNOW  33  33  98 N16G25    29.51S WCI  23
HOLDREGE       LGT SNOW  30  30 100 N13G18    29.65R VSB 3/4 WCI  20
KEARNEY        SNOW      29  28  96 MISG      29.62S VSB 1/2
YORK           LGT SNOW  32  32 100 N21G32    29.50F WCI  20
$$

NEZ011>018-030>034-042>045-221400-
NORTHEAST NEBRASKA

CITY           SKY/WX    TMP DP  RH WIND       PRES   REMARKS
NORFOLK        FOG       34  32  92 N32G51    29.52F VSB 1/4 WCI  20
ALBION         SNOW      31  29  94 N23G35    29.62F VSB 1/2 WCI  17
BLAIR          RAIN      35  33  95 N13G18    29.43F WCI  26
COLUMBUS       LGT SNOW  32  30  92 N20       29.56S VSB 3/4 WCI  20
FREMONT        LGT SNOW  33  33 100 NW9       29.48F WCI  25
TEKAMAH        LGT SNOW  34  32  92 N20       29.48R FOG     WCI  23
WAYNE          SNOW      32  31  96 N29G37    29.57R VSB 1/2 WCI  18
$$

NEZ050>053-065>068-078-088>093-221400-
SOUTHEAST NEBRASKA

CITY           SKY/WX    TMP DP  RH WIND       PRES   REMARKS
LINCOLN        CLOUDY    34  32  92 N21       29.46R WCI  22
OMAHA EPPLEY   LGT SNOW  34  33  96 N12       29.44S FOG     WCI  25
BEATRICE       CLOUDY    36  35  96 NW17      29.46S WCI  25
FALLS CITY     FOG       37  36  96 W9        29.41S VSB 3/4 WCI  30
NEBRASKA CITY  CLOUDY    36  36 100 NW5       29.40R WCI  32
PLATTSMOUTH    RAIN      34  34 100 NW16      29.37F WCI  24
$$

NEZ044-045-051>053-067-221400-
OMAHA AREA

CITY           SKY/WX    TMP DP  RH WIND       PRES   REMARKS
OMAHA EPPLEY   LGT SNOW  34  33  96 N12       29.44S FOG     WCI  25
BLAIR          RAIN      35  33  95 N13G18    29.43F WCI  26
FREMONT        LGT SNOW  33  33 100 NW9       29.48F WCI  25
MILLARD        LGT SNOW  35  33  93 N6        29.45R WCI  30
OFFUTT AFB     FLURRIES  34  33  97 N16G22    29.37F WCI  23
PLATTSMOUTH    RAIN      34  34 100 NW16      29.37F WCI  24
WAHOO          SNOW      33  32  96 NW16      29.47F VSB 1/2 WCI  23
$$




USA.gov is the U.S. government's official web portal to all federal, state and local government web resources and services.